Weather History for KLHW - January, 2013

Change the Weather History Date:

Sunday, January 6, 2013

  Actual Average Record
Temperature  
Mean Temperature 52 °F -  
Max Temperature 55 °F 63 °F 77 °F (1993)
Min Temperature 48 °F 40 °F 17 °F (1999)
Degree Days  
Heating Degree Days 14    
Growing Degree Days 2 (Base 50)    
Moisture  
Dew Point 47 °F    
Average Humidity 89    
Maximum Humidity 100    
Minimum Humidity 67    
Precipitation  
Precipitation 0.11 in - - ()
Sea Level Pressure  
Sea Level Pressure 30.20 in    
Wind  
Wind Speed 1 mph (WNW)    
Max Wind Speed 7 mph    
Max Gust Speed -    
Visibility 10 miles    
Events Rain    
Averages and records for this station are not official NWS values.
T = Trace of Precipitation, MM = Missing Value Source: NWS Daily Summary

Daily Weather History Graph

Daily Weather History Graph

Search for Another Location

Airport or City:

Trip Planner

Search our weather history database for the weather conditions in past years. The results will help you decide how hot, cold, wet, or windy it might be!

Date:

Astronomy

Jan. 06, 2013 Rise Set
Actual Time 7:27 AM EST 5:37 PM EST
Civil Twilight 7:00 AM EST 6:04 PM EST
Nautical Twilight 6:30 AM EST 6:34 PM EST
Astronomical Twilight 6:00 AM EST 7:04 PM EST
Moon 1:48 AM EST (1/6) 12:57 PM EST (1/6)
Length of Visible Light 11h 03m
Length of Day
10h 10m
Waning Crescent, 33% of the Moon is Illuminated
Jan 6
Waning Crescent
Jan 11
New
Jan 18
First Quarter
Jan 26
Full
Feb 3
Last Quarter

Hourly Weather History & Observations

Time (EST) Temp. Dew Point Humidity Pressure Visibility Wind Dir Wind Speed Gust Speed Precip Events Conditions
12:55 AM 48.6 °F 45.3 °F 89% 30.27 in 10.0 mi Calm Calm - N/A   Overcast
1:55 AM 48.6 °F 45.3 °F 89% 30.25 in 10.0 mi Calm Calm - N/A   Overcast
2:41 AM 48.2 °F 46.4 °F 93% 30.24 in 10.0 mi NNW 3.5 mph - N/A Rain Light Rain
2:54 AM 48.2 °F 46.4 °F 93% 30.25 in 10.0 mi Calm Calm - N/A   Overcast
2:55 AM 48.7 °F 45.7 °F 89% 30.24 in 10.0 mi Calm Calm - 0.00 in   Overcast
3:27 AM 48.2 °F 46.4 °F 93% 30.21 in 10.0 mi Calm Calm - N/A Rain Light Rain
3:55 AM 48.7 °F 45.7 °F 89% 30.21 in 10.0 mi Calm Calm - 0.00 in Rain Light Rain
4:47 AM 48.2 °F 46.4 °F 93% 30.20 in 10.0 mi Calm Calm - N/A   Overcast
4:53 AM 48.2 °F 46.4 °F 93% 30.19 in 10.0 mi Calm Calm - N/A Rain Light Rain
4:55 AM 48.2 °F 46.9 °F 95% 30.19 in 10.0 mi Calm Calm - 0.00 in Rain Light Rain
5:15 AM 48.2 °F 48.2 °F 100% 30.20 in 10.0 mi Calm Calm - N/A   Overcast
5:21 AM 48.2 °F 48.2 °F 100% 30.20 in 10.0 mi Calm Calm - N/A Rain Light Rain
5:34 AM 48.2 °F 48.2 °F 100% 30.20 in 10.0 mi Calm Calm - N/A   Overcast
5:39 AM 48.2 °F 48.2 °F 100% 30.20 in 10.0 mi Calm Calm - N/A Rain Light Rain
5:54 AM 48.2 °F 46.4 °F 93% 30.20 in 10.0 mi Calm Calm - N/A   Overcast
5:55 AM 48.4 °F 47.3 °F 96% 30.20 in 10.0 mi Calm Calm - 0.00 in   Overcast
6:55 AM 49.1 °F 47.3 °F 93% 30.21 in 10.0 mi North 3.5 mph - N/A   Overcast
6:56 AM 50.0 °F 48.2 °F 94% 30.21 in 10.0 mi North 3.5 mph - N/A Rain Light Rain
7:08 AM 50.0 °F 48.2 °F 94% 30.21 in 10.0 mi Calm Calm - N/A   Overcast
7:55 AM 49.3 °F 48.2 °F 96% 30.24 in 10.0 mi NW 3.5 mph - 0.00 in   Overcast
7:59 AM 50.0 °F 48.2 °F 94% 30.23 in 10.0 mi NNW 4.6 mph - N/A Rain Light Rain
8:32 AM 50.0 °F 48.2 °F 94% 30.24 in 10.0 mi NNW 3.5 mph - N/A   Overcast
8:55 AM 50.2 °F 48.2 °F 93% 30.24 in 10.0 mi Calm Calm - 0.01 in   Overcast
9:55 AM 51.6 °F 47.8 °F 87% 30.24 in 10.0 mi Calm Calm - N/A   Overcast
10:55 AM 54.3 °F 47.7 °F 78% 30.22 in 10.0 mi North 4.6 mph - N/A   Overcast
11:55 AM 54.7 °F 45.3 °F 71% 30.21 in 10.0 mi WNW 5.8 mph - N/A   Overcast
11:59 AM 55.4 °F 44.6 °F 67% 30.21 in 10.0 mi WNW 5.8 mph - N/A Rain Light Rain
12:14 PM 53.6 °F 46.4 °F 77% 30.21 in 5.0 mi Variable 4.6 mph - N/A Rain Light Rain
12:18 PM 51.8 °F 46.4 °F 82% 30.21 in 2.5 mi WNW 4.6 mph - N/A Rain Heavy Rain
12:27 PM 51.8 °F 46.4 °F 82% 30.21 in 2.0 mi WSW 3.5 mph - N/A Rain Heavy Rain
12:38 PM 50.0 °F 48.2 °F 94% 30.20 in 3.0 mi Calm Calm - N/A Rain Light Rain
12:55 PM 51.1 °F 45.7 °F 82% 30.19 in 10.0 mi Calm Calm - 0.10 in Rain Light Rain
1:00 PM 51.8 °F 44.6 °F 76% 30.19 in 10.0 mi Calm Calm - N/A   Overcast
1:14 PM 51.8 °F 44.6 °F 76% 30.17 in 10.0 mi Calm Calm - N/A Rain Light Rain
1:26 PM 51.8 °F 44.6 °F 76% 30.17 in 10.0 mi Calm Calm - N/A   Mostly Cloudy
1:48 PM 51.8 °F 48.2 °F 88% 30.17 in 10.0 mi Calm Calm - N/A Rain Light Rain
1:55 PM 51.8 °F 48.7 °F 89% 30.17 in 10.0 mi West 3.5 mph - 0.00 in Rain Light Rain
2:19 PM 50.0 °F 46.4 °F 87% 30.17 in 10.0 mi WNW 5.8 mph - N/A Rain Light Rain
2:55 PM 50.0 °F 45.5 °F 85% 30.15 in 10.0 mi Calm Calm - 0.00 in Rain Light Rain
3:02 PM 50.0 °F 46.4 °F 87% 30.15 in 10.0 mi Calm Calm - N/A   Light Drizzle
3:04 PM 50.0 °F 46.4 °F 87% 30.15 in 10.0 mi Calm Calm - N/A   Overcast
3:08 PM 50.0 °F 46.4 °F 87% 30.16 in 10.0 mi Calm Calm - N/A   Overcast
3:18 PM 50.0 °F 46.4 °F 87% 30.16 in 10.0 mi Calm Calm - N/A   Overcast
3:55 PM 50.4 °F 46.9 °F 88% 30.15 in 10.0 mi Calm Calm - 0.00 in   Overcast
4:55 PM 50.9 °F 47.7 °F 89% 30.15 in 10.0 mi Calm Calm - N/A   Overcast
5:55 PM 50.7 °F 48.7 °F 93% 30.15 in 10.0 mi Calm Calm - N/A   Overcast
6:55 PM 50.2 °F 48.2 °F 93% 30.16 in 10.0 mi WSW 3.5 mph - N/A   Overcast
7:55 PM 50.0 °F 47.5 °F 91% 30.17 in 10.0 mi Calm Calm - N/A   Overcast
8:10 PM 50.0 °F 46.4 °F 87% 30.17 in 10.0 mi WSW 4.6 mph - N/A Rain Light Rain
8:25 PM 50.0 °F 46.4 °F 87% 30.17 in 10.0 mi WSW 3.5 mph - N/A   Overcast
8:55 PM 50.2 °F 47.1 °F 89% 30.18 in 10.0 mi West 3.5 mph - 0.00 in   Overcast
9:55 PM 49.6 °F 46.0 °F 87% 30.20 in 10.0 mi West 4.6 mph - N/A   Overcast
10:55 PM 49.6 °F 45.1 °F 84% 30.20 in 10.0 mi West 4.6 mph - N/A   Overcast
11:55 PM 48.6 °F 44.6 °F 86% 30.21 in 10.0 mi West 6.9 mph - N/A   Clear